Norwood, MA

4:37 PM EDT on April 24, 2018 (GMT -0400)
Norwood Memorial

Weather History for KOWD - December, 2012

Change the Weather History Date:

Saturday, December 22, 2012

  Actual Average Record
Temperature  
Mean Temperature 34 °F -  
Max Temperature 39 °F 38 °F 66 °F (2013)
Min Temperature 30 °F 21 °F 8 °F (1997)
Degree Days  
Heating Degree Days 30    
Moisture  
Dew Point 22 °F    
Average Humidity 59    
Maximum Humidity 76    
Minimum Humidity 41    
Precipitation  
Precipitation 0.00 in - - ()
Sea Level Pressure  
Sea Level Pressure 29.42 in    
Wind  
Wind Speed 12 mph (West)    
Max Wind Speed 23 mph    
Max Gust Speed 33 mph    
Visibility 10 miles    
Events      
Averages and records for this station are not official NWS values.
T = Trace of Precipitation, MM = Missing Value Source: NWS Daily Summary

Daily Weather History Graph

Daily Weather History Graph

Search for Another Location

Airport or City:

Astronomy

Dec. 22, 2012 Rise Set
Actual Time 7:10 AM EST 4:16 PM EST
Civil Twilight 6:38 AM EST 4:48 PM EST
Nautical Twilight 6:03 AM EST 5:23 PM EST
Astronomical Twilight 5:29 AM EST 5:57 PM EST
Moon 12:35 PM EST (12/22) 1:49 AM EST (12/22)
Length of Visible Light 10h 09m
Length of Day
9h 05m
Waxing Gibbous, 73% of the Moon is Illuminated
Dec 22
Waxing Gibbous
Dec 28
Full
Jan 4
Last Quarter
Jan 11
New
Jan 18
First Quarter

Hourly Weather History & Observations

Time (EST) Temp. Windchill Dew Point Humidity Pressure Visibility Wind Dir Wind Speed Gust Speed Precip Events Conditions
12:53 AM 39.0 °F 31.8 °F 28.0 °F 65% 29.23 in 10.0 mi SW 11.5 mph 19.6 mph N/A   Overcast
1:53 AM 37.0 °F 31.0 °F 27.0 °F 67% 29.25 in 10.0 mi SSW 8.1 mph - N/A   Clear
2:53 AM 37.0 °F 32.4 °F 28.0 °F 70% 29.26 in 10.0 mi SW 5.8 mph - N/A   Overcast
4:53 AM 36.0 °F 32.1 °F 27.0 °F 70% 29.27 in 10.0 mi SSW 4.6 mph - N/A   Scattered Clouds
5:53 AM 36.0 °F 30.3 °F 28.0 °F 73% 29.28 in 10.0 mi SSW 6.9 mph - N/A   Overcast
6:53 AM 37.0 °F 32.4 °F 28.0 °F 70% 29.30 in 10.0 mi SW 5.8 mph - N/A   Overcast
7:53 AM 37.0 °F 31.6 °F 30.0 °F 76% 29.32 in 10.0 mi SW 6.9 mph - N/A   Overcast
8:53 AM 37.9 °F 30.9 °F 30.9 °F 76% 29.34 in 10.0 mi SW 10.4 mph - N/A   Overcast
9:30 AM 37.4 °F 28.2 °F 30.2 °F 75% 29.36 in 8.0 mi WSW 16.1 mph 24.2 mph 0.00 in   Overcast
9:49 AM 37.4 °F 29.3 °F 28.4 °F 70% 29.36 in 9.0 mi West 12.7 mph 21.9 mph 0.00 in   Overcast
9:53 AM 37.9 °F 30.5 °F 27.0 °F 65% 29.37 in 10.0 mi West 11.5 mph 21.9 mph 0.00 in   Mostly Cloudy
10:53 AM 37.9 °F 28.9 °F 21.9 °F 53% 29.37 in 10.0 mi West 16.1 mph 25.3 mph N/A   Overcast
11:53 AM 39.0 °F 28.5 °F 18.0 °F 43% 29.36 in 10.0 mi West 23.0 mph 29.9 mph N/A   Clear
12:53 PM 37.9 °F 27.1 °F 16.0 °F 41% 29.37 in 10.0 mi West 23.0 mph 33.4 mph N/A   Clear
1:53 PM 35.1 °F 24.1 °F 18.0 °F 50% 29.39 in 10.0 mi West 19.6 mph 32.2 mph N/A   Overcast
2:53 PM 34.0 °F 23.8 °F 19.0 °F 54% 29.42 in 10.0 mi West 16.1 mph 24.2 mph N/A   Mostly Cloudy
3:53 PM 34.0 °F 21.8 °F 17.1 °F 50% 29.45 in 10.0 mi WNW 23.0 mph 33.4 mph N/A   Overcast
4:53 PM 32.0 °F 21.6 °F 14.0 °F 48% 29.49 in 10.0 mi WNW 15.0 mph 28.8 mph N/A   Scattered Clouds
5:53 PM 30.9 °F 20.7 °F 15.1 °F 52% 29.52 in 10.0 mi WNW 13.8 mph 23.0 mph N/A   Clear
6:53 PM 30.9 °F 22.2 °F 16.0 °F 54% 29.55 in 10.0 mi WNW 10.4 mph 26.5 mph N/A   Scattered Clouds
7:53 PM 30.9 °F 20.7 °F 16.0 °F 54% 29.59 in 10.0 mi WNW 13.8 mph 23.0 mph N/A   Scattered Clouds
8:53 PM 30.9 °F 20.2 °F 15.1 °F 52% 29.62 in 10.0 mi West 15.0 mph 27.6 mph N/A   Mostly Cloudy
9:53 PM 30.0 °F 20.5 °F 15.1 °F 54% 29.62 in 10.0 mi WNW 11.5 mph 21.9 mph N/A   Partly Cloudy
10:53 PM 30.9 °F 19.4 °F 15.1 °F 52% 29.64 in 10.0 mi WNW 17.3 mph 25.3 mph N/A   Clear
11:53 PM 30.9 °F - 14.0 °F 50% 29.65 in 10.0 mi North - - N/A   Clear